{"data":{"norad_id":65207,"intl_designator":"2025-176K","name":"STARLINK-34901","alt_names":[],"object_type":"PAYLOAD","status":"ACTIVE","operator":null,"country":"US","launch_date":"2025-08-14","launch_site_code":"AFETR","launch_vehicle":null,"mission":null,"orbit_class":"UNKNOWN","rcs_meters":null,"size_class":null,"mass_kg":null,"dimensions":null,"purposes":["comms"],"wikipedia_slug":null,"has_3d_model":false,"image_url":null,"decayed_at":null,"tle_current":{"epoch":"2026-05-25T00:38:21.675264Z","epoch_age_seconds":62947,"freshness":"FRESH","line1":"1 65207U 25176K   26145.02663976  .00019872  00000+0  59749-3 0  9991","line2":"2 65207  53.1609 157.7504 0001528  72.7175 287.3995 15.34411240 44815","mean_motion":15.3441124,"eccentricity":0.0001528,"inclination_deg":53.1609,"raan_deg":157.7504,"arg_perigee_deg":72.7175,"mean_anomaly_deg":287.3995,"bstar":0.00059749,"rev_number":4481,"period_min":93.847070619738,"perigee_km":461.62455747827,"apogee_km":463.71510804636,"semimajor_km":6840.8068327623,"source":"CELESTRAK","updated_at":"2026-05-25T13:38:20.719384Z"}}}